Date,TemperatureHighF,TemperatureAvgF,TemperatureLowF,DewpointHighF,DewpointAvgF,DewpointLowF,HumidityHigh,HumidityAvg,HumidityLow,PressureMaxIn,PressureMinIn,WindSpeedMaxMPH,WindSpeedAvgMPH,GustSpeedMaxMPH,PrecipitationSumIn
2013-1-1,36,29,13,34,22,13,100,76,44,29.72,29.52,11,2,18,0.03
2013-1-2,30,17,6,23,13,6,100,86,55,29.89,29.70,8,2,15,0.01
2013-1-3,25,11,-2,14,5,-2,100,79,32,29.92,29.77,5,1,10,0.00
2013-1-4,37,22,6,31,20,6,100,91,60,29.76,29.61,8,1,13,0.02
2013-1-5,42,30,18,32,24,18,100,82,40,30.04,29.62,10,2,16,0.09
2013-1-6,44,30,19,36,27,19,100,91,57,29.99,29.74,6,1,10,0.06
2013-1-7,39,25,16,34,18,7,100,76,41,30.19,29.75,7,1,12,0.00
2013-1-8,47,29,15,35,21,-1,100,74,32,30.15,30.06,9,1,10,0.00
2013-1-9,43,32,18,40,25,7,100,76,45,30.18,29.82,7,1,12,0.00
2013-1-10,47,40,28,34,28,24,100,65,40,30.34,29.86,15,3,20,0.00
2013-1-11,38,31,21,36,26,15,100,82,42,30.32,30.04,5,0,7,0.11
2013-1-12,40,37,34,15,7,2,42,29,21,30.04,29.94,3,0,4,0.03
2013-1-13,50,44,37,28,5,-6,42,20,10,29.98,29.84,3,0,8,0.00
2013-1-14,62,50,40,58,31,14,95,55,23,30.07,29.69,10,2,13,0.00
2013-1-15,40,38,37,36,34,33,95,82,75,30.10,30.05,4,1,8,0.00
2013-3-5,44,42,39,37,33,29,91,70,56,30.02,29.99,8,2,10,0.00
2013-3-6,39,36,33,34,15,-10,82,45,14,30.11,30.05,20,6,20,0.18
2013-3-7,33,31,29,21,4,-16,67,34,13,30.06,29.97,22,5,22,0.08
2013-3-8,39,32,28,35,2,-26,94,40,7,30.13,29.91,15,3,15,0.16
2013-3-9,52,34,20,38,21,-8,95,63,24,30.33,30.11,12,2,13,0.54
2013-3-10,51,32,16,41,17,-10,93,56,17,30.41,30.29,7,1,10,0.55
2013-3-11,56,42,31,47,24,-19,94,53,7,30.31,30.15,9,1,9,0.00
2013-3-12,56,49,40,34,-30,-52,43,7,1,30.15,29.76,13,1,13,0.42
2013-3-13,52,46,42,9,-18,-49,23,10,1,29.78,29.75,11,2,11,0.00
2013-3-14,33,27,21,14,11,7,63,51,42,29.79,29.70,17,3,21,0.00
2013-3-15,45,30,18,33,15,6,94,58,23,29.84,29.62,15,2,15,0.00
2013-3-16,42,33,25,31,18,8,96,57,26,29.85,29.64,12,2,13,0.00
2013-3-17,40,29,17,25,13,4,100,56,24,30.28,29.85,13,2,15,0.00
2013-3-18,42,28,14,30,10,2,100,51,20,30.43,30.21,8,1,10,0.00
2013-3-19,34,31,26,20,-18,-31,72,15,5,30.21,29.60,17,3,17,0.53
2013-3-20,39,29,20,32,17,-15,95,63,17,29.78,29.66,13,2,15,0.44
2013-3-21,41,27,15,33,14,-10,95,60,20,29.77,29.57,9,1,9,0.20
2013-3-22,43,32,23,28,21,-18,91,65,15,29.70,29.57,13,2,15,0.17
2013-3-23,46,34,24,32,23,17,100,66,35,29.76,29.64,17,3,18,0.00
2013-3-24,50,37,28,35,26,21,100,67,37,29.83,29.72,15,2,15,0.00
2013-3-25,44,35,27,41,30,7,95,82,42,29.75,29.53,16,3,16,0.00
2013-3-26,53,41,32,37,29,18,96,67,29,29.77,29.53,12,2,12,0.00
2013-3-27,56,40,22,38,25,4,100,60,31,29.88,29.73,14,2,17,0.00
2013-3-28,51,42,35,42,28,2,94,61,24,30.02,29.87,10,2,13,0.01
2013-3-29,59,43,26,43,27,-32,88,55,6,30.08,29.98,11,1,13,0.01
2013-3-30,60,45,29,38,24,-24,92,49,7,30.11,30.03,13,2,13,0.01
2013-3-31,64,44,23,46,23,-17,91,47,11,30.13,29.75,13,1,17,0.04
2013-4-1,64,47,34,51,4,-52,89,34,1,29.78,29.56,17,2,17,0.16
2013-4-2,43,34,27,19,14,9,65,43,29,29.92,29.78,17,3,18,0.00
2013-4-3,48,37,28,20,14,9,67,41,22,30.14,29.90,16,3,19,0.00
2013-4-4,60,42,24,26,18,12,93,42,17,30.30,30.05,12,2,12,0.04
2013-4-5,65,46,33,38,28,19,92,55,19,30.05,29.70,14,2,16,0.04
2013-4-6,48,37,26,31,13,3,97,40,17,30.31,29.89,22,3,22,0.00
2013-4-7,59,42,22,45,29,15,96,65,28,30.31,30.02,15,2,16,0.00
2013-4-8,69,52,37,48,20,-52,91,39,1,30.13,29.96,11,1,12,0.00
2013-4-9,73,56,45,58,26,-49,91,44,1,30.12,29.91,14,1,15,0.04
2013-4-10,69,52,45,57,2,-50,91,30,1,30.05,29.90,10,1,10,0.22
2013-4-11,55,47,41,47,-9,-52,91,28,1,30.16,29.85,10,2,12,0.10
2013-4-12,41,38,36,29,-18,-56,64,17,1,30.17,29.79,15,3,15,0.58
2013-4-13,54,43,35,47,4,-56,92,36,1,29.96,29.75,11,2,13,0.06
2013-4-14,53,45,32,43,17,-54,91,42,1,30.21,29.92,15,2,16,0.00
2013-4-15,63,45,27,46,22,-35,91,44,4,30.43,30.20,10,1,11,0.00
2013-4-16,69,52,35,55,22,-56,91,41,1,30.42,30.11,13,2,15,0.00
2013-4-17,68,58,45,48,29,-24,76,38,3,30.37,30.11,14,3,14,0.00
2013-4-18,69,51,33,50,29,-11,90,45,12,30.48,30.19,13,2,13,0.00
2013-4-19,77,63,52,69,-5,-45,90,20,1,30.19,29.73,17,2,17,0.00
2013-4-20,67,54,43,47,4,-50,77,29,1,30.24,29.67,21,2,21,0.60
2013-4-21,56,43,31,35,23,12,91,48,26,30.68,30.24,14,2,14,0.00
2013-4-22,55,42,27,42,18,-40,91,45,4,30.82,30.61,16,2,17,0.00
2013-4-23,41,40,37,28,-27,-55,65,20,1,30.61,30.15,13,4,14,0.02
2013-4-24,78,57,40,57,11,-53,90,32,1,30.15,29.89,12,3,13,0.00
2013-4-25,67,55,40,45,23,-45,89,37,1,30.29,29.88,15,2,15,0.04
2013-4-26,63,48,32,46,18,-56,90,35,1,30.49,30.29,15,2,15,0.04
2013-4-27,69,52,34,46,11,-57,89,31,1,30.50,30.36,9,1,9,0.00
2013-4-28,75,55,36,50,14,-56,71,29,1,30.43,30.29,12,1,13,0.00
2013-4-29,75,58,44,54,27,-50,89,35,1,30.35,30.27,9,1,12,0.00
2013-4-30,74,57,43,44,30,10,89,39,17,30.43,30.29,11,1,12,0.00
2013-5-1,74,54,34,45,17,-57,89,30,1,30.57,30.39,11,1,11,0.00
2013-5-2,83,56,39,53,21,-54,90,37,1,30.54,30.44,14,2,16,0.00
2013-5-3,64,50,40,48,27,-16,90,45,8,30.58,30.41,15,2,15,0.00
2013-5-4,65,49,37,52,6,-55,90,29,1,30.43,30.34,13,2,14,0.00
2013-5-5,66,48,31,47,2,-59,90,31,1,30.39,30.29,10,1,11,0.03
2013-5-6,76,52,33,58,-4,-58,90,24,1,30.36,30.21,9,1,10,0.03
2013-5-7,82,62,41,65,9,-53,89,28,1,30.29,30.18,10,1,10,0.03
2013-5-8,77,62,50,70,-13,-47,92,19,1,30.31,30.12,13,1,13,0.19
2013-5-9,69,60,56,24,-39,-44,18,2,1,30.12,29.96,7,1,7,0.62
2013-5-10,84,66,53,68,4,-45,87,24,1,30.07,29.95,8,1,10,0.55
2013-5-11,72,64,58,24,-26,-42,21,4,1,30.00,29.77,11,1,13,0.05
2013-5-12,73,61,49,64,-2,-42,80,24,1,29.86,29.67,18,1,18,0.05
2013-5-13,62,49,37,41,26,-13,89,43,12,30.06,29.86,12,2,15,0.01
2013-5-14,60,48,34,44,9,-57,90,32,1,30.09,30.01,12,2,12,0.01
2013-5-15,69,51,32,52,-18,-58,80,14,1,30.08,29.72,12,1,12,0.00
2013-5-16,81,65,46,49,10,-50,60,20,1,29.88,29.67,16,2,17,0.01
2013-5-17,68,58,46,53,34,-50,90,45,1,30.26,29.88,13,2,15,0.00
2013-5-18,76,59,40,56,9,-53,89,29,1,30.40,30.25,7,1,8,0.00
2013-5-19,77,57,45,60,-16,-50,89,17,1,30.44,30.28,9,1,9,0.06
2013-5-20,83,67,55,73,-8,-44,87,19,1,30.28,30.04,11,1,12,0.02
2013-5-21,84,63,51,74,-22,-47,85,9,1,30.08,29.99,14,2,14,0.00
2013-5-22,71,57,50,-24,-43,-47,2,1,1,30.12,29.94,9,1,9,0.00
2013-5-23,77,64,54,-31,-39,-45,1,1,1,29.99,29.89,10,1,13,0.00
2013-5-24,73,63,49,-33,-40,-48,1,1,1,29.89,29.73,10,1,10,0.01
2013-5-25,51,47,41,-47,-49,-53,1,1,1,29.87,29.75,10,2,10,0.00
2013-5-26,59,48,39,50,3,-54,88,36,1,30.13,29.73,16,2,16,0.01
2013-5-27,73,56,36,52,1,-56,89,22,1,30.22,30.11,12,1,12,0.01
2013-5-28,78,59,39,59,-1,-54,88,22,1,30.35,30.21,9,1,9,0.00
2013-5-29,70,62,58,-35,-40,-42,1,1,1,30.25,30.06,7,0,7,0.00
2013-5-30,88,73,59,76,2,-42,85,21,1,30.21,30.10,10,1,12,0.00
2013-5-31,97,78,60,75,23,-41,87,29,1,30.22,30.07,10,1,10,0.00
2013-6-1,96,79,63,77,22,-39,87,29,1,30.11,29.99,10,1,10,0.00
2013-6-2,92,78,68,76,7,-36,88,23,1,29.99,29.85,15,1,16,0.00
2013-6-3,78,69,60,59,-9,-39,81,17,1,29.93,29.87,7,0,7,0.00
2013-6-4,71,61,47,55,31,-49,93,44,1,30.15,29.90,10,2,10,0.00
2013-6-5,78,62,47,58,15,-49,89,33,1,30.29,30.15,8,1,8,0.00
2013-6-6,78,65,52,59,29,-46,90,41,1,30.28,30.18,11,1,11,0.00
2013-6-7,58,55,53,-43,-44,-45,1,1,1,30.18,29.86,8,1,9,0.00
2013-6-8,79,63,53,56,-14,-46,48,12,1,30.07,29.67,9,1,9,0.01
2013-6-9,80,67,53,67,5,-45,87,24,1,30.23,30.07,9,1,9,0.00
2013-6-10,70,62,53,47,-16,-45,46,11,1,30.29,30.09,8,1,8,0.00
2013-6-11,63,58,55,-39,-42,-44,1,1,1,30.09,29.64,12,1,12,0.01
2013-6-12,70,62,56,63,9,-44,90,34,1,29.89,29.61,13,2,13,0.00
2013-6-13,67,56,49,34,-36,-48,31,3,1,29.87,29.73,8,0,8,0.00
2013-6-14,73,60,52,65,-14,-46,80,18,1,29.83,29.68,9,1,10,0.01
2013-6-15,79,65,50,62,8,-47,89,23,1,30.04,29.83,7,1,10,0.00
2013-6-16,80,65,50,68,14,-47,90,32,1,30.02,29.81,9,1,9,0.00
2013-6-17,88,69,56,71,-2,-44,79,17,1,29.99,29.86,10,1,10,0.00
2013-6-18,77,62,57,46,-34,-43,35,3,1,30.04,29.95,10,1,11,0.00
2013-6-19,77,64,55,63,5,-44,88,26,1,30.20,29.97,10,1,10,0.00
2013-6-20,82,66,48,63,15,-48,88,29,1,30.37,30.20,9,0,9,0.00
2013-6-21,87,71,57,72,10,-43,88,24,1,30.37,30.29,7,1,7,0.00
2013-6-22,86,73,59,71,24,-42,89,35,1,30.34,30.23,9,1,9,0.00
2013-6-23,93,77,64,77,29,-39,90,33,1,30.25,30.13,12,1,12,0.00
2013-6-24,94,80,68,81,16,-36,90,28,1,30.13,30.01,10,1,10,0.00
2013-6-25,93,79,67,80,25,-37,92,33,1,30.03,29.85,9,1,11,0.00
2013-6-26,87,75,68,80,-4,-36,90,17,1,29.95,29.83,10,1,11,0.00
2013-6-27,76,67,62,-18,-37,-40,2,1,1,29.95,29.84,9,1,9,0.00
2013-6-28,84,72,59,36,-27,-42,19,2,1,29.84,29.61,12,2,12,0.00
2013-6-29,85,75,70,77,2,-35,90,25,1,29.82,29.61,10,1,10,0.00
2013-6-30,89,76,67,81,5,-37,88,23,1,30.05,29.83,9,1,9,0.00
2013-7-1,83,74,71,-27,-33,-35,1,1,1,30.19,30.04,7,1,7,0.00
2013-7-2,85,74,62,51,-20,-40,35,5,1,30.30,30.17,9,1,9,0.00
2013-7-3,90,75,61,82,3,-40,89,21,1,30.33,30.25,9,1,10,0.00
2013-7-4,97,82,70,82,19,-35,89,29,1,30.34,30.23,9,1,9,0.00
2013-7-5,95,83,72,82,21,-34,89,28,1,30.30,30.17,12,0,12,0.00
2013-7-6,93,81,71,80,16,-35,89,28,1,30.20,30.12,10,1,10,0.00
2013-7-7,95,78,66,84,-1,-38,88,20,1,30.15,30.03,8,0,8,0.00
2013-7-8,87,76,68,54,-12,-36,35,7,1,30.17,30.01,8,1,9,0.00
2013-7-9,74,69,65,-33,-36,-38,1,1,1,30.21,30.14,6,0,6,0.00
2013-7-10,87,74,66,55,-21,-38,35,4,1,30.17,29.91,10,1,10,0.00
2013-7-11,85,75,70,48,-30,-35,29,1,1,30.03,29.88,7,0,7,0.00
2013-7-12,78,70,66,68,24,-38,90,39,1,30.29,30.03,10,1,11,0.00
2013-7-13,80,71,63,39,-22,-39,24,4,1,30.43,30.29,6,1,6,0.00
2013-7-14,92,78,68,81,7,-36,88,23,1,30.42,30.31,7,1,7,0.00
2013-7-15,93,79,68,82,6,-36,88,24,1,30.33,30.23,8,1,9,0.00
2013-7-16,94,78,66,80,10,-38,72,22,1,30.29,30.21,9,1,9,0.00
2013-7-17,96,87,71,81,41,-34,91,37,1,30.32,30.12,7,1,7,0.00
2013-7-18,99,82,73,79,19,-33,90,29,1,30.17,30.07,9,1,9,0.01
2013-7-19,99,83,71,85,7,-34,90,19,1,30.06,29.88,11,1,12,0.01
2013-7-20,94,83,72,83,25,-32,93,33,1,29.93,29.81,8,1,8,0.01
2013-7-21,85,74,65,74,10,-38,92,28,1,30.10,29.93,9,1,9,0.01
2013-7-22,87,72,64,75,-4,-39,92,19,1,30.15,30.00,8,1,8,0.01
2013-7-23,81,72,68,-29,-34,-36,1,1,1,30.00,29.66,9,0,9,0.02
2013-7-24,87,76,70,77,2,-35,77,23,1,29.89,29.69,10,1,10,0.01
2013-7-29,87,81,66,78,46,-38,87,49,1,30.17,30.10,9,1,9,0.08
2013-7-30,85,75,60,70,31,-41,89,35,1,30.24,30.14,9,1,9,0.03
2013-7-31,86,71,58,71,7,-42,88,25,1,30.27,30.15,7,1,8,0.01
2013-8-1,84,75,66,72,25,-38,89,36,1,30.12,29.99,9,1,11,0.00
2013-8-2,85,76,64,72,25,-39,89,34,1,29.99,29.92,9,1,9,0.00
2013-8-3,80,70,62,73,2,-40,89,25,1,29.97,29.91,9,0,9,0.01
2013-8-4,83,67,56,68,7,-44,90,25,1,29.99,29.89,8,0,9,0.00
2013-8-5,77,63,52,58,6,-46,86,24,1,30.13,29.96,9,1,9,0.00
2013-8-6,83,64,48,62,4,-48,90,24,1,30.27,30.12,7,0,7,0.00
2013-8-7,84,67,52,67,13,-46,90,28,1,30.31,30.22,9,1,9,0.00
2013-8-8,81,71,62,35,-26,-40,23,3,1,30.23,30.14,8,1,8,0.00
2013-8-9,74,71,69,-33,-34,-36,1,1,1,30.14,29.87,11,1,11,0.00
2013-8-10,85,72,60,69,6,-41,88,24,1,30.10,29.90,10,1,10,0.01
2013-8-11,82,67,52,68,2,-46,87,22,1,30.21,30.10,9,1,9,0.00
2013-8-12,85,70,57,70,4,-43,87,22,1,30.15,30.02,8,0,8,0.01
2013-8-13,73,67,62,15,-34,-40,11,1,1,30.02,29.78,9,0,9,0.01
2013-8-14,74,66,56,61,17,-44,88,34,1,30.04,29.75,15,2,15,0.01
2013-8-15,80,64,49,63,2,-48,86,23,1,30.21,30.04,9,1,10,0.04
2013-8-16,81,65,51,70,-4,-47,86,20,1,30.29,30.17,10,1,10,0.07
2013-8-17,84,66,52,71,-2,-46,86,22,1,30.41,30.27,8,1,8,0.05
2013-8-18,80,67,56,72,-11,-44,89,20,1,30.39,30.17,6,0,7,0.01
2013-8-19,84,70,56,71,10,-44,89,27,1,30.17,30.09,7,1,8,0.00
2013-8-20,90,72,59,75,3,-42,88,20,1,30.22,30.08,7,1,7,0.00
2013-8-21,92,73,59,74,4,-42,88,21,1,30.29,30.13,7,0,7,0.00
2013-8-22,91,74,61,80,6,-40,88,24,1,30.13,29.94,8,0,9,0.00
2013-8-23,82,72,61,69,20,-38,90,31,1,30.22,29.93,10,1,12,0.00
2013-8-24,82,64,51,61,9,-47,88,25,1,30.44,30.22,9,1,10,0.00
2013-8-25,88,67,49,66,12,-48,90,26,1,30.49,30.28,7,0,9,0.00
2013-8-26,83,71,62,74,17,-40,90,30,1,30.29,29.99,9,0,10,0.00
2013-8-27,86,72,68,77,-14,-37,76,13,1,30.01,29.94,6,0,6,0.00
2013-8-28,89,73,65,74,11,-38,91,30,1,30.08,30.00,7,1,8,0.00
2013-8-29,66,64,60,-38,-39,-41,1,1,1,30.17,30.05,11,1,11,0.00
2013-8-30,88,71,59,77,4,-42,89,25,1,30.12,29.94,9,0,10,0.00
2013-8-31,82,73,67,-28,-33,-37,1,1,1,29.96,29.90,7,0,8,0.00
2013-9-1,76,70,68,-32,-35,-36,1,1,1,30.00,29.91,4,0,5,0.00
2013-9-2,78,74,71,-31,-33,-34,1,1,1,29.95,29.83,7,0,7,0.00
2013-9-3,85,73,61,65,-26,-40,54,4,1,29.91,29.81,10,0,10,0.00
2013-9-4,84,68,55,66,6,-44,86,25,1,30.03,29.89,9,1,9,0.00
2013-9-5,71,61,49,58,-10,-48,85,19,1,30.21,29.94,10,1,10,0.00
2013-9-6,77,56,41,54,-5,-53,86,22,1,30.35,30.15,7,1,9,0.00
2013-9-7,85,63,46,64,-1,-50,83,22,1,30.15,29.95,8,0,9,0.00
2013-9-8,77,63,47,66,6,-49,88,27,1,30.15,29.84,13,1,13,0.00
2013-9-9,75,57,40,55,3,-53,87,25,1,30.34,30.15,7,0,7,0.00
2013-9-10,74,65,53,-33,-38,-45,1,1,1,30.23,30.14,10,0,10,0.00
2013-9-11,99,80,66,84,8,-38,86,21,1,30.21,30.09,11,0,11,0.00
2013-9-12,89,76,67,79,-2,-37,85,20,1,30.10,29.78,11,1,19,0.00
2013-9-13,84,68,59,72,-33,-42,67,2,1,29.85,29.70,9,0,9,0.02
2013-9-14,68,60,50,55,-6,-47,66,20,1,30.12,29.85,7,1,9,0.01
2013-9-15,77,58,45,59,-7,-50,83,22,1,30.28,30.12,8,0,8,0.09
2013-9-16,70,57,47,58,-3,-46,83,29,1,30.31,30.08,8,1,10,0.02
2013-9-17,67,50,37,52,0,-55,83,28,1,30.51,30.31,10,1,10,0.06
2013-9-18,79,55,38,57,-11,-55,85,18,1,30.38,30.19,6,0,7,0.03
2013-9-19,84,60,43,66,-8,-52,86,19,1,30.24,30.12,8,0,8,0.00
2013-9-20,86,62,45,67,-8,-50,85,18,1,30.21,30.08,7,0,8,0.00
2013-9-21,75,63,49,46,-24,-48,39,5,1,30.09,29.83,10,1,13,0.00
2013-9-22,73,64,50,61,-4,-47,84,24,1,29.89,29.70,10,1,10,0.00
2013-9-23,67,53,43,51,5,-52,84,34,1,30.06,29.89,7,1,11,0.00
2013-9-24,69,53,38,52,-2,-55,84,28,1,30.03,29.91,9,1,10,0.00
2013-9-25,73,55,41,60,-6,-53,85,27,1,30.05,29.91,11,1,11,0.00
2013-9-26,71,57,51,57,-7,-47,82,25,1,30.19,30.05,8,1,8,0.00
2013-9-27,65,57,48,45,-23,-48,48,9,1,30.33,30.19,8,1,8,0.00
2013-9-28,76,57,43,62,-11,-52,83,22,1,30.44,30.30,8,1,9,0.00
2013-9-29,74,54,43,57,-21,-52,83,16,1,30.32,30.17,6,0,9,0.00
2013-9-30,74,55,45,58,-21,-50,82,16,1,30.17,30.01,6,0,6,0.00
2013-10-1,80,58,42,64,-16,-52,82,16,1,30.06,29.95,10,1,10,0.00
2013-10-2,81,63,47,68,-4,-49,82,24,1,30.03,29.93,9,1,10,0.00
2013-10-3,83,61,47,60,-8,-49,82,19,1,30.21,30.03,6,0,6,0.00
2013-10-4,64,56,48,-39,-44,-48,1,1,1,30.17,30.10,6,0,7,0.00
2013-10-5,72,62,56,54,-30,-44,53,4,1,30.21,30.13,6,0,6,0.00
2013-10-6,59,56,53,-42,-44,-45,1,1,1,30.30,30.19,7,0,8,0.00
2013-10-7,78,64,56,-31,-38,-44,1,1,1,30.20,29.92,15,1,17,0.00
2013-10-8,68,56,43,54,-7,-52,81,24,1,30.42,29.99,9,1,10,0.00
2013-10-9,65,49,37,54,-14,-55,73,24,1,30.56,30.40,9,1,9,0.00
2013-10-10,63,50,38,40,-36,-55,42,5,1,30.40,30.23,8,0,8,0.00
2013-10-11,74,55,43,62,-11,-52,82,20,1,30.25,30.17,9,1,9,0.00
2013-10-12,59,52,41,-42,-46,-53,1,1,1,30.46,30.20,9,1,9,0.00
2013-10-13,60,50,37,46,-21,-55,62,14,1,30.53,30.42,7,1,7,0.00
2013-10-14,70,48,31,53,-17,-59,82,21,1,30.45,30.31,7,0,7,0.00
2013-10-15,66,55,46,50,-19,-50,57,13,1,30.34,30.23,7,0,7,0.00
2013-10-16,63,54,46,32,-37,-50,33,3,1,30.23,29.96,6,0,6,0.00
2013-10-17,78,60,48,66,-17,-48,75,17,1,29.97,29.80,7,0,7,0.00
2013-10-18,70,59,42,57,-6,-52,78,24,1,29.95,29.69,13,1,13,0.00
2013-10-19,70,53,36,55,5,-56,81,34,1,30.06,29.81,7,0,9,0.00
2013-10-20,63,51,36,48,4,-56,81,31,1,30.03,29.74,15,1,15,0.00
2013-10-21,70,50,33,54,-1,-58,83,32,1,30.18,30.03,8,1,8,0.00
2013-10-22,68,52,37,58,6,-55,80,40,1,30.03,29.78,10,0,10,0.00
2013-10-23,53,43,33,44,-3,-58,80,32,1,29.82,29.63,6,0,6,0.00
2013-10-24,56,44,31,41,10,-59,82,41,1,29.90,29.67,16,1,16,0.00
2013-10-25,52,37,26,42,-4,-62,82,36,1,30.15,29.89,13,1,14,0.05
2013-10-26,58,40,23,43,-6,-64,82,32,1,30.15,29.91,12,1,12,0.00
2013-10-27,56,46,35,46,14,-55,84,46,1,30.07,29.83,16,1,16,0.03
2013-10-28,60,42,26,43,4,-62,85,39,1,30.36,30.07,13,1,14,0.00
2013-10-29,55,34,22,33,-1,-65,85,38,1,30.48,30.35,8,1,8,0.00
2013-10-30,52,37,26,45,-32,-62,78,16,1,30.35,30.23,8,0,8,0.02
2013-10-31,60,44,28,-41,-51,-61,1,1,1,30.24,29.86,9,0,9,0.16
2013-11-1,69,62,51,52,-14,-47,65,14,1,29.86,29.54,17,2,17,0.17
2013-11-2,70,54,41,56,-4,-53,83,26,1,29.78,29.67,9,0,10,0.00
2013-11-3,48,40,28,36,14,-50,80,46,1,30.41,29.76,12,2,12,0.00
2013-11-4,46,30,21,24,18,-17,95,64,28,30.69,30.41,10,1,11,0.00
2013-11-5,55,35,20,35,3,-65,82,37,1,30.73,30.52,7,0,7,0.00
2013-11-6,64,49,34,51,10,-56,81,37,1,30.52,30.09,10,1,10,0.00
2013-11-7,65,52,33,50,-13,-50,76,22,1,30.09,29.74,12,1,12,0.15
2013-11-8,52,37,25,40,16,-62,87,52,1,30.08,29.81,15,1,15,0.01
2013-11-9,47,36,23,34,26,3,83,67,38,30.23,30.04,13,1,13,0.00
2013-11-10,58,43,35,49,9,-55,86,48,1,30.04,29.79,10,1,11,0.07
2013-11-11,55,45,36,36,31,25,82,61,34,30.15,29.87,12,1,13,0.07
2013-11-12,48,34,24,42,13,-58,87,58,1,30.17,29.92,16,2,16,0.13
2013-11-13,39,26,16,23,16,7,91,68,36,30.29,30.14,12,1,12,0.00
2013-11-14,53,36,25,31,24,17,87,64,32,30.14,30.05,11,1,13,0.00
2013-11-15,64,41,22,34,21,-3,84,49,17,30.25,30.09,10,0,10,0.00
2013-11-16,65,42,28,38,25,6,83,54,24,30.35,30.19,7,0,7,0.01
2013-11-17,51,40,27,43,-1,-50,74,35,1,30.32,29.87,7,0,7,0.02
2013-11-18,68,55,41,56,7,-50,83,35,1,29.87,29.60,13,1,15,0.10
2013-11-19,48,39,29,34,24,18,74,56,40,30.27,29.69,20,2,20,0.05
2013-11-20,43,30,18,23,17,11,100,62,29,30.62,30.27,12,2,12,0.00
2013-11-21,53,32,15,31,17,-65,92,58,1,30.64,30.37,9,0,9,0.00
2013-11-22,45,41,33,28,-32,-55,78,17,1,30.37,29.84,3,0,4,0.15
2013-11-23,48,39,27,36,14,-52,90,51,1,29.95,29.78,17,2,17,0.01
2013-11-24,27,22,17,24,6,-4,98,52,28,30.17,29.77,22,4,25,0.00
2013-11-25,36,23,13,19,4,-7,65,46,19,30.36,30.17,12,1,13,0.00
2013-11-26,40,34,29,32,6,-58,94,48,1,30.34,30.05,9,1,10,0.07
2013-11-27,61,49,34,8,-47,-57,31,1,1,30.05,29.27,13,2,16,0.53
2013-11-28,36,30,20,29,17,-6,88,62,16,30.41,29.47,17,2,19,0.03
2013-11-29,35,24,15,23,14,-1,100,69,33,30.73,30.41,10,1,11,0.04
2013-11-30,38,22,9,27,17,8,100,86,48,30.78,30.41,7,0,7,0.13
2013-12-1,35,32,28,30,-26,-60,98,34,1,30.41,30.03,6,0,6,0.23
2013-12-2,38,36,34,-55,-56,-57,1,1,1,30.03,29.94,6,0,6,0.30
2013-12-3,49,36,24,41,-30,-63,85,20,1,29.94,29.89,8,1,8,0.08
2013-12-4,44,30,21,36,-25,-65,84,27,1,30.19,29.94,8,0,8,0.00
2013-12-5,44,36,25,13,-42,-63,42,6,1,30.21,29.95,5,0,5,0.00
2013-12-6,53,46,32,41,-27,-58,79,17,1,30.17,29.90,10,1,10,0.09
2013-12-7,41,31,20,34,-14,-65,88,38,1,30.44,30.09,12,1,12,0.10
2013-12-8,30,25,16,25,12,-65,91,66,2,30.58,30.43,7,1,7,0.00
2013-12-9,34,29,23,24,-41,-63,90,14,1,30.48,29.88,7,1,8,0.01
2013-12-10,32,29,22,24,-36,-60,94,23,1,29.97,29.77,9,0,11,0.00
2013-12-11,35,23,15,25,20,12,100,90,51,30.19,29.97,13,1,13,0.09
2013-12-12,27,18,10,21,10,1,100,77,37,30.26,30.02,14,1,15,0.00
2013-12-13,29,19,9,24,15,6,100,85,53,30.36,29.95,13,1,14,0.00
2013-12-14,18,12,8,15,6,-1,100,79,58,30.58,30.13,7,2,10,0.00
2013-12-15,32,24,15,26,-5,-64,100,58,1,30.13,29.41,17,1,17,0.00
2013-12-16,30,21,12,22,13,6,100,74,47,30.17,29.70,15,1,17,0.17
2013-12-17,16,8,-4,15,8,-4,100,99,86,30.25,29.93,7,1,7,0.00
2013-12-18,37,22,13,26,20,11,100,91,58,30.06,29.85,10,0,10,0.22
2013-12-19,45,30,18,32,25,18,100,85,51,30.10,29.98,11,1,14,0.41
2013-12-20,56,38,25,45,32,15,96,80,55,30.11,29.93,7,0,7,0.58
2013-12-21,58,43,34,52,37,-4,96,79,19,29.99,29.90,7,0,8,0.09
2013-12-22,49,38,32,29,-46,-58,70,7,1,30.03,29.81,8,1,9,0.01
2013-12-23,36,32,30,-56,-58,-60,1,1,1,30.09,29.96,10,1,11,0.49
2013-12-24,36,31,23,35,15,-57,100,67,1,30.18,30.06,12,1,12,0.12
2013-12-25,24,17,11,17,8,2,100,70,45,30.53,30.18,16,2,17,0.00
2013-12-26,28,20,11,28,17,2,100,91,50,30.47,30.07,6,0,6,0.00
2013-12-27,36,22,11,32,18,-51,100,87,2,30.26,30.16,9,0,10,0.06
2013-12-28,48,29,15,34,22,7,100,76,46,30.20,30.00,9,1,10,0.00
2013-12-29,40,32,22,38,-5,-56,100,44,1,30.02,29.43,15,1,15,0.43
2013-12-30,43,31,16,38,-13,-60,98,38,1,30.15,29.53,19,1,19,0.60
2013-12-31,27,17,11,18,9,-1,100,74,42,30.15,30.00,12,1,12,0.01
2014-1-1,29,18,8,18,12,7,100,78,43,30.36,30.15,11,1,12,0.00
2014-1-2,18,9,-2,18,9,-2,100,100,98,30.34,29.82,16,4,16,0.00